Time,TemperatureF,DewpointF,PressureIn,WindDirection,WindDirectionDegrees,WindSpeedMPH,WindSpeedGustMPH,Humidity,HourlyPrecipIn,Conditions,Clouds,dailyrainin,SolarRadiationWatts/m^2,SoftwareType,DateUTC
2013-04-10 00:02:00,69.0,64.0,-100.00,ESE,105,8.0,10.0,83,0.00,,,0.19,0.000000,,2013-04-10 10:02:00,
2013-04-10 00:12:00,69.0,64.0,-100.00,ESE,105,8.0,10.0,83,0.00,,,0.19,0.000000,,2013-04-10 10:12:00,
2013-04-10 00:23:00,69.0,64.0,-100.00,ESE,105,8.0,10.0,83,0.00,,,0.19,0.000000,,2013-04-10 10:23:00,
2013-04-10 00:33:00,69.0,64.0,-100.00,ESE,105,8.0,10.0,83,0.00,,,0.19,0.000000,,2013-04-10 10:33:00,
2013-04-10 01:02:00,69.0,63.0,-100.00,East,99,7.0,10.0,80,0.00,,,0.19,0.000000,,2013-04-10 11:02:00,
2013-04-10 01:12:00,69.0,63.0,-100.00,East,99,7.0,10.0,80,0.00,,,0.19,0.000000,,2013-04-10 11:12:00,
2013-04-10 01:22:00,69.0,63.0,-100.00,East,99,7.0,10.0,80,0.00,,,0.19,0.000000,,2013-04-10 11:22:00,
2013-04-10 01:32:00,69.0,63.0,-100.00,East,99,7.0,10.0,80,0.00,,,0.19,0.000000,,2013-04-10 11:32:00,
2013-04-10 04:02:00,63.0,59.0,-100.00,East,93,4.0,9.0,86,-99.99,,,0.01,0.000000,,2013-04-10 14:02:00,
2013-04-10 04:12:00,63.0,59.0,-100.00,East,93,4.0,9.0,86,-99.99,,,0.01,0.000000,,2013-04-10 14:12:00,
2013-04-10 04:22:00,63.0,59.0,-100.00,East,93,4.0,9.0,86,-99.99,,,0.01,0.000000,,2013-04-10 14:22:00,
2013-04-10 04:32:00,63.0,59.0,-100.00,East,93,4.0,9.0,86,-99.99,,,0.01,0.000000,,2013-04-10 14:32:00,
2013-04-10 05:02:00,65.0,58.0,-100.00,SE,135,6.0,9.0,79,0.00,,,0.01,0.000000,,2013-04-10 15:02:00,
2013-04-10 05:12:00,65.0,58.0,-100.00,SE,135,6.0,9.0,79,0.00,,,0.01,0.000000,,2013-04-10 15:12:00,
2013-04-10 05:22:00,65.0,58.0,-100.00,SE,135,6.0,9.0,79,0.00,,,0.01,0.000000,,2013-04-10 15:22:00,
2013-04-10 05:32:00,65.0,58.0,-100.00,SE,135,6.0,9.0,79,0.00,,,0.01,0.000000,,2013-04-10 15:32:00,
2013-04-10 06:02:00,63.0,57.0,-100.00,ESE,120,6.0,9.0,81,0.00,,,0.01,0.000000,,2013-04-10 16:02:00,
2013-04-10 06:12:00,63.0,57.0,-100.00,ESE,120,6.0,9.0,81,0.00,,,0.01,0.000000,,2013-04-10 16:12:00,
2013-04-10 06:23:00,63.0,57.0,-100.00,ESE,120,6.0,9.0,81,0.00,,,0.01,0.000000,,2013-04-10 16:23:00,
2013-04-10 06:32:00,63.0,57.0,-100.00,ESE,120,6.0,9.0,81,0.00,,,0.01,0.000000,,2013-04-10 16:32:00,
2013-04-10 07:02:00,64.0,59.0,-100.00,ESE,107,8.0,11.0,84,0.00,,,0.01,9.000000,,2013-04-10 17:02:00,
2013-04-10 07:12:00,64.0,59.0,-100.00,ESE,107,8.0,11.0,84,0.00,,,0.01,9.000000,,2013-04-10 17:12:00,
2013-04-10 07:22:00,64.0,59.0,-100.00,ESE,107,8.0,11.0,84,0.00,,,0.01,9.000000,,2013-04-10 17:22:00,
2013-04-10 07:32:00,64.0,59.0,-100.00,ESE,107,8.0,11.0,84,0.00,,,0.01,9.000000,,2013-04-10 17:32:00,
2013-04-10 08:02:00,73.0,63.0,-100.00,ESE,111,6.0,11.0,70,0.00,,,0.01,180.000000,,2013-04-10 18:02:00,
2013-04-10 08:12:00,73.0,63.0,-100.00,ESE,111,6.0,11.0,70,0.00,,,0.01,180.000000,,2013-04-10 18:12:00,
2013-04-10 08:22:00,73.0,63.0,-100.00,ESE,111,6.0,11.0,70,0.00,,,0.01,180.000000,,2013-04-10 18:22:00,
2013-04-10 08:32:00,73.0,63.0,-100.00,ESE,111,6.0,11.0,70,0.00,,,0.01,180.000000,,2013-04-10 18:32:00,
2013-04-10 09:03:00,77.0,64.0,-100.00,ESE,107,3.0,11.0,65,0.00,,,0.01,445.000000,,2013-04-10 19:03:00,
2013-04-10 09:12:00,77.0,64.0,-100.00,ESE,107,3.0,11.0,65,0.00,,,0.01,445.000000,,2013-04-10 19:12:00,
2013-04-10 09:22:00,77.0,64.0,-100.00,ESE,107,3.0,11.0,65,0.00,,,0.01,445.000000,,2013-04-10 19:22:00,
2013-04-10 09:32:00,77.0,64.0,-100.00,ESE,107,3.0,11.0,65,0.00,,,0.01,445.000000,,2013-04-10 19:32:00,
2013-04-10 10:02:00,78.0,61.0,-100.00,NNW,344,5.0,19.0,56,0.01,,,0.02,698.000000,,2013-04-10 20:02:00,
2013-04-10 10:12:00,78.0,61.0,-100.00,NNW,344,5.0,19.0,56,0.01,,,0.02,698.000000,,2013-04-10 20:12:00,
2013-04-10 10:22:00,78.0,61.0,-100.00,NNW,344,5.0,19.0,56,0.01,,,0.02,698.000000,,2013-04-10 20:22:00,
2013-04-10 10:32:00,78.0,61.0,-100.00,NNW,344,5.0,19.0,56,0.01,,,0.02,698.000000,,2013-04-10 20:32:00,
2013-04-10 11:02:00,79.0,62.0,-100.00,WNW,284,9.0,14.0,56,0.00,,,0.02,891.000000,,2013-04-10 21:02:00,
2013-04-10 11:12:00,79.0,62.0,-100.00,WNW,284,9.0,14.0,56,0.00,,,0.02,891.000000,,2013-04-10 21:12:00,
2013-04-10 11:22:00,79.0,62.0,-100.00,WNW,284,9.0,14.0,56,0.00,,,0.02,891.000000,,2013-04-10 21:22:00,
2013-04-10 11:32:00,79.0,62.0,-100.00,WNW,284,9.0,14.0,56,0.00,,,0.02,891.000000,,2013-04-10 21:32:00,
2013-04-10 12:03:00,79.0,61.0,-100.00,WNW,285,9.0,14.0,55,0.00,,,0.02,1025.000000,,2013-04-10 22:03:00,
2013-04-10 12:12:00,79.0,61.0,-100.00,WNW,285,9.0,14.0,55,0.00,,,0.02,1025.000000,,2013-04-10 22:12:00,
2013-04-10 12:22:00,79.0,61.0,-100.00,WNW,285,9.0,14.0,55,0.00,,,0.02,1025.000000,,2013-04-10 22:22:00,
2013-04-10 12:33:00,79.0,61.0,-100.00,WNW,285,9.0,14.0,55,0.00,,,0.02,1025.000000,,2013-04-10 22:33:00,
2013-04-10 13:02:00,80.0,61.0,-100.00,West,271,9.0,17.0,52,0.00,,,-99.99,1080.000000,,2013-04-10 23:02:00,
2013-04-10 13:12:00,80.0,61.0,-100.00,West,271,9.0,17.0,52,0.00,,,-99.99,1080.000000,,2013-04-10 23:12:00,
2013-04-10 13:22:00,80.0,61.0,-100.00,West,271,9.0,17.0,52,0.00,,,-99.99,1080.000000,,2013-04-10 23:22:00,
2013-04-10 13:32:00,80.0,61.0,-100.00,West,271,9.0,17.0,52,0.00,,,-99.99,1080.000000,,2013-04-10 23:32:00,
2013-04-10 14:02:00,81.0,64.0,-100.00,WNW,283,8.0,17.0,56,0.00,,,0.02,1092.000000,,2013-04-11 00:02:00,
2013-04-10 14:12:00,81.0,64.0,-100.00,WNW,283,8.0,17.0,56,0.00,,,0.02,1092.000000,,2013-04-11 00:12:00,
2013-04-10 14:22:00,81.0,64.0,-100.00,WNW,283,8.0,17.0,56,0.00,,,0.02,1092.000000,,2013-04-11 00:22:00,
2013-04-10 14:32:00,81.0,64.0,-100.00,WNW,283,8.0,17.0,56,0.00,,,0.02,1092.000000,,2013-04-11 00:32:00,
2013-04-10 15:02:00,80.0,61.0,-100.00,WNW,297,9.0,18.0,53,0.00,,,0.02,892.000000,,2013-04-11 01:02:00,
2013-04-10 15:12:00,80.0,61.0,-100.00,WNW,297,9.0,18.0,53,0.00,,,0.02,892.000000,,2013-04-11 01:12:00,
2013-04-10 15:22:00,80.0,61.0,-100.00,WNW,297,9.0,18.0,53,0.00,,,0.02,892.000000,,2013-04-11 01:22:00,
2013-04-10 15:32:00,80.0,61.0,-100.00,WNW,297,9.0,18.0,53,0.00,,,0.02,892.000000,,2013-04-11 01:32:00,
2013-04-10 16:02:00,82.0,62.0,-100.00,WNW,296,7.0,15.0,51,0.00,,,0.02,841.000000,,2013-04-11 02:02:00,
2013-04-10 16:12:00,82.0,62.0,-100.00,WNW,296,7.0,15.0,51,0.00,,,0.02,841.000000,,2013-04-11 02:12:00,
2013-04-10 16:22:00,82.0,62.0,-100.00,WNW,296,7.0,15.0,51,0.00,,,0.02,841.000000,,2013-04-11 02:22:00,
2013-04-10 16:32:00,82.0,62.0,-100.00,WNW,296,7.0,15.0,51,0.00,,,0.02,841.000000,,2013-04-11 02:32:00,
2013-04-10 17:02:00,80.0,62.0,-100.00,WNW,297,8.0,17.0,55,0.00,,,0.02,602.000000,,2013-04-11 03:02:00,
2013-04-10 17:12:00,80.0,62.0,-100.00,WNW,297,8.0,17.0,55,0.00,,,0.02,602.000000,,2013-04-11 03:12:00,
2013-04-10 17:22:00,80.0,62.0,-100.00,WNW,297,8.0,17.0,55,0.00,,,0.02,602.000000,,2013-04-11 03:22:00,
2013-04-10 17:33:00,80.0,62.0,-100.00,WNW,297,8.0,17.0,55,0.00,,,0.02,602.000000,,2013-04-11 03:33:00,
2013-04-10 18:03:00,79.0,62.0,-100.00,WNW,300,5.0,13.0,56,0.00,,,0.02,355.000000,,2013-04-11 04:03:00,
2013-04-10 18:12:00,79.0,62.0,-100.00,WNW,300,5.0,13.0,56,0.00,,,0.02,355.000000,,2013-04-11 04:12:00,
2013-04-10 18:22:00,79.0,62.0,-100.00,WNW,300,5.0,13.0,56,0.00,,,0.02,355.000000,,2013-04-11 04:22:00,
2013-04-10 18:33:00,79.0,62.0,-100.00,WNW,300,5.0,13.0,56,0.00,,,0.02,355.000000,,2013-04-11 04:33:00,
2013-04-10 19:02:00,76.0,62.0,-100.00,ENE,67,10.0,19.0,61,0.00,,,0.02,117.000000,,2013-04-11 05:02:00,
2013-04-10 19:12:00,76.0,62.0,-100.00,ENE,67,10.0,19.0,61,0.00,,,0.02,117.000000,,2013-04-11 05:12:00,
2013-04-10 19:22:00,76.0,62.0,-100.00,ENE,67,10.0,19.0,61,0.00,,,0.02,117.000000,,2013-04-11 05:22:00,
2013-04-10 19:32:00,76.0,62.0,-100.00,ENE,67,10.0,19.0,61,0.00,,,0.02,117.000000,,2013-04-11 05:32:00,
2013-04-10 20:02:00,74.0,64.0,-100.00,NE,50,6.0,23.0,71,0.00,,,0.02,1.000000,,2013-04-11 06:02:00,
2013-04-10 20:12:00,74.0,64.0,-100.00,NE,50,6.0,23.0,71,0.00,,,0.02,1.000000,,2013-04-11 06:12:00,
2013-04-10 20:22:00,74.0,64.0,-100.00,NE,50,6.0,23.0,71,0.00,,,0.02,1.000000,,2013-04-11 06:22:00,
2013-04-10 20:32:00,74.0,64.0,-100.00,NE,50,6.0,23.0,71,0.00,,,0.02,1.000000,,2013-04-11 06:32:00,
2013-04-10 21:02:00,72.0,67.0,-100.00,NE,45,5.0,13.0,83,0.00,,,0.01,0.000000,,2013-04-11 07:02:00,
2013-04-10 21:12:00,72.0,67.0,-100.00,NE,45,5.0,13.0,83,0.00,,,0.01,0.000000,,2013-04-11 07:12:00,
2013-04-10 21:22:00,72.0,67.0,-100.00,NE,45,5.0,13.0,83,0.00,,,0.01,0.000000,,2013-04-11 07:22:00,
2013-04-10 21:31:00,72.0,67.0,-100.00,NE,45,5.0,13.0,83,0.00,,,0.01,0.000000,,2013-04-11 07:31:00,
2013-04-10 22:02:00,72.0,66.0,-100.00,North,352,5.0,9.0,82,0.00,,,0.01,0.000000,,2013-04-11 08:02:00,
2013-04-10 22:12:00,72.0,66.0,-100.00,North,352,5.0,9.0,82,0.00,,,0.01,0.000000,,2013-04-11 08:12:00,
2013-04-10 22:22:00,72.0,66.0,-100.00,North,352,5.0,9.0,82,0.00,,,0.01,0.000000,,2013-04-11 08:22:00,
2013-04-10 22:32:00,72.0,66.0,-100.00,North,352,5.0,9.0,82,0.00,,,0.01,0.000000,,2013-04-11 08:32:00,
2013-04-10 23:02:00,72.0,67.0,-100.00,NNE,12,4.0,8.0,84,0.00,,,0.01,0.000000,,2013-04-11 09:02:00,
2013-04-10 23:12:00,72.0,67.0,-100.00,NNE,12,4.0,8.0,84,0.00,,,0.01,0.000000,,2013-04-11 09:12:00,
2013-04-10 23:22:00,72.0,67.0,-100.00,NNE,12,4.0,8.0,84,0.00,,,0.01,0.000000,,2013-04-11 09:22:00,
2013-04-10 23:32:00,72.0,67.0,-100.00,NNE,12,4.0,8.0,84,0.00,,,0.01,0.000000,,2013-04-11 09:32:00,